SIA301 EGCC-WSSS

Flight info

Callsign SIA301
Flight time N/A
Altitude 35000
Route DESIG L603 DOLAS DCT NAVPI DCT GISEB DCT TIVUN DCT ESAMA DCT OSBIT DCT BARSU DCT MOOCE DCT RUDNO DCT DEXIT DCT ADLET DCT PESAT DCT TEGRI DCT EKNAB DCT NERDI DCT ASNEL DCT UDROS/N0487F370 UM859 KARDE UL851 TBN UR317 REBLO M11 LUSAL N199 BAKUV N701 LARGI B701 TUGTA A909 NINOP/N0487F390 A909 LEMOD N644 DI M875 KAKID M770 DABEN/N0486F410 M770 OBMOG L515 PUT W14 HTY A334 PASVA Y514 NUFFA DCT PIBAP DCT PASPU DCT NYLON DCT POSUB DCT SANAT
Aircraft A359/H-SDE2E3GHIJ3J4J5LM1ORWXY/LB1D1

Departure

Time 2026-05-06 13:32
Airport Manchester Airport (EGCC)

Arrival

Time N/A
Airport Singapore Changi Airport (WSSS)
Time Latitude Longitude Altitude Speed Heading
2026-05-06 12:41 53.36701 -2.28475 261 ft 0 kts 135°
2026-05-06 12:42 53.36700 -2.28474 261 ft 0 kts 135°
2026-05-06 12:55 53.36706 -2.28484 261 ft 4 kts 135°
2026-05-06 12:56 53.36725 -2.28517 262 ft 4 kts 135°
2026-05-06 12:56 53.36741 -2.28544 265 ft 2 kts 135°
2026-05-06 12:56 53.36760 -2.28559 267 ft 4 kts 201°
2026-05-06 12:56 53.36777 -2.28540 267 ft 4 kts 224°
2026-05-06 12:57 53.36796 -2.28508 265 ft 4 kts 224°
2026-05-06 12:57 53.36808 -2.28489 265 ft 0 kts 224°
2026-05-06 12:59 53.36804 -2.28495 265 ft 5 kts 224°
2026-05-06 13:00 53.36742 -2.28596 261 ft 19 kts 224°
2026-05-06 13:00 53.36650 -2.28749 261 ft 19 kts 223°
2026-05-06 13:00 53.36552 -2.28710 261 ft 16 kts 137°
2026-05-06 13:00 53.36474 -2.28580 261 ft 16 kts 135°
2026-05-06 13:01 53.36382 -2.28486 261 ft 16 kts 165°
2026-05-06 13:01 53.36294 -2.28388 261 ft 15 kts 135°
2026-05-06 13:01 53.36217 -2.28260 261 ft 16 kts 135°
2026-05-06 13:01 53.36140 -2.28129 261 ft 16 kts 134°
2026-05-06 13:02 53.36062 -2.28000 261 ft 16 kts 136°
2026-05-06 13:02 53.35978 -2.27879 261 ft 16 kts 144°
2026-05-06 13:02 53.35870 -2.27853 260 ft 17 kts 186°
2026-05-06 13:02 53.35740 -2.27875 253 ft 21 kts 186°
2026-05-06 13:03 53.35578 -2.27902 244 ft 25 kts 185°
2026-05-06 13:03 53.35417 -2.27988 243 ft 25 kts 221°
2026-05-06 13:03 53.35288 -2.28191 239 ft 26 kts 226°
2026-05-06 13:03 53.35171 -2.28428 239 ft 28 kts 231°
2026-05-06 13:04 53.35051 -2.28673 240 ft 27 kts 230°
2026-05-06 13:04 53.34924 -2.28909 235 ft 28 kts 225°
2026-05-06 13:04 53.34782 -2.29159 231 ft 30 kts 229°
2026-05-06 13:04 53.34651 -2.29337 221 ft 18 kts 193°
2026-05-06 13:05 53.34554 -2.29265 226 ft 15 kts 110°
2026-05-06 13:05 53.34589 -2.29118 228 ft 13 kts 51°
2026-05-06 13:05 53.34599 -2.29097 229 ft 7 kts 51°
2026-05-06 13:05 53.34724 -2.28839 231 ft 60 kts 51°
2026-05-06 13:06 53.35139 -2.27982 239 ft 128 kts 51°
2026-05-06 13:06 53.35683 -2.26851 270 ft 79 kts 50°
2026-05-06 13:06 53.35837 -2.26542 276 ft 16 kts 51°
2026-05-06 13:06 53.35941 -2.26331 270 ft 27 kts 50°
2026-05-06 13:07 53.36054 -2.26159 264 ft 10 kts 344°
2026-05-06 13:07 53.36123 -2.26244 261 ft 17 kts 302°
2026-05-06 13:07 53.36098 -2.26406 262 ft 14 kts 233°
2026-05-06 13:07 53.36089 -2.26427 262 ft 0 kts 233°
2026-05-06 13:14 53.36088 -2.26428 262 ft 2 kts 233°
2026-05-06 13:14 53.36058 -2.26492 262 ft 10 kts 230°
2026-05-06 13:15 53.36013 -2.26583 262 ft 10 kts 230°
2026-05-06 13:15 53.35966 -2.26680 262 ft 11 kts 231°
2026-05-06 13:15 53.35916 -2.26786 262 ft 11 kts 241°
2026-05-06 13:15 53.35875 -2.26893 262 ft 11 kts 229°
2026-05-06 13:16 53.35825 -2.26994 262 ft 11 kts 240°
2026-05-06 13:16 53.35784 -2.27113 261 ft 12 kts 239°
2026-05-06 13:16 53.35731 -2.27207 261 ft 8 kts 187°
2026-05-06 13:16 53.35714 -2.27195 261 ft 0 kts 153°
2026-05-06 13:17 53.35701 -2.27213 262 ft 2 kts 248°
2026-05-06 13:17 53.35718 -2.27248 261 ft 13 kts 334°
2026-05-06 13:17 53.35784 -2.27316 261 ft 2 kts 275°
2026-05-06 13:18 53.35754 -2.27388 261 ft 17 kts 232°
2026-05-06 13:18 53.35715 -2.27471 260 ft 4 kts 231°
2026-05-06 13:18 53.35715 -2.27472 260 ft 0 kts 231°
2026-05-06 13:26 53.35696 -2.27510 257 ft 19 kts 231°
2026-05-06 13:26 53.35578 -2.27752 246 ft 28 kts 223°
2026-05-06 13:26 53.35465 -2.27907 245 ft 18 kts 223°
2026-05-06 13:27 53.35377 -2.28050 243 ft 18 kts 226°
2026-05-06 13:27 53.35281 -2.28206 238 ft 21 kts 224°
2026-05-06 13:27 53.35187 -2.28389 240 ft 22 kts 231°
2026-05-06 13:27 53.35090 -2.28592 241 ft 22 kts 230°
2026-05-06 13:28 53.34988 -2.28791 234 ft 23 kts 227°
2026-05-06 13:28 53.34879 -2.28983 228 ft 24 kts 226°
2026-05-06 13:28 53.34764 -2.29199 225 ft 25 kts 231°
2026-05-06 13:28 53.34716 -2.29287 227 ft 0 kts 221°
2026-05-06 13:29 53.34707 -2.29298 226 ft 8 kts 217°
2026-05-06 13:29 53.34648 -2.29336 218 ft 9 kts 187°
2026-05-06 13:29 53.34551 -2.29296 226 ft 22 kts 140°
2026-05-06 13:29 53.34572 -2.29155 227 ft 12 kts 50°
2026-05-06 13:30 53.34581 -2.29137 229 ft 0 kts 50°
2026-05-06 13:30 53.34589 -2.29120 228 ft 0 kts 51°
2026-05-06 13:31 53.34595 -2.29106 229 ft 9 kts 51°
2026-05-06 13:32 53.34721 -2.28847 231 ft 60 kts 51°
2026-05-06 13:32 53.35135 -2.27990 239 ft 129 kts 51°
2026-05-06 13:32 53.35809 -2.26574 418 ft 172 kts 51°
2026-05-06 13:32 53.36570 -2.24949 1112 ft 183 kts 52°
2026-05-06 13:33 53.37385 -2.23203 1904 ft 196 kts 52°
2026-05-06 13:33 53.38252 -2.21343 2775 ft 206 kts 52°
2026-05-06 13:33 53.39149 -2.19395 3605 ft 218 kts 52°
2026-05-06 13:33 53.40129 -2.17341 3991 ft 233 kts 51°
2026-05-06 13:34 53.41179 -2.15175 4349 ft 244 kts 51°
2026-05-06 13:34 53.42251 -2.12934 4924 ft 247 kts 51°
2026-05-06 13:34 53.43331 -2.10662 5464 ft 252 kts 51°
2026-05-06 13:34 53.44429 -2.08335 6013 ft 256 kts 50°
2026-05-06 13:35 53.45540 -2.05977 6620 ft 259 kts 50°
2026-05-06 13:35 53.46669 -2.03576 7197 ft 264 kts 51°
2026-05-06 13:35 53.47816 -2.01132 7745 ft 268 kts 50°
2026-05-06 13:35 53.48978 -1.98664 8377 ft 271 kts 50°
2026-05-06 13:36 53.50146 -1.96136 8939 ft 277 kts 53°
2026-05-06 13:36 53.51217 -1.93416 9537 ft 281 kts 56°
2026-05-06 13:36 53.52103 -1.90454 10102 ft 288 kts 70°
2026-05-06 13:36 53.52330 -1.87044 10435 ft 305 kts 95°
2026-05-06 13:37 53.51957 -1.83444 10732 ft 320 kts 102°
2026-05-06 13:37 53.51346 -1.79762 11009 ft 335 kts 106°
2026-05-06 13:37 53.50611 -1.75951 11297 ft 349 kts 107°
2026-05-06 13:37 53.49830 -1.72018 11605 ft 362 kts 107°
2026-05-06 13:38 53.49033 -1.67920 11881 ft 375 kts 107°
2026-05-06 13:38 53.48247 -1.63732 12137 ft 387 kts 106°
2026-05-06 13:38 53.47450 -1.59362 12553 ft 395 kts 106°
2026-05-06 13:38 53.46645 -1.54871 13125 ft 398 kts 106°
2026-05-06 13:39 53.45844 -1.50391 13630 ft 403 kts 106°
2026-05-06 13:39 53.45033 -1.45855 14061 ft 409 kts 106°
2026-05-06 13:39 53.44210 -1.41269 14562 ft 411 kts 106°
2026-05-06 13:39 53.43392 -1.36728 15091 ft 413 kts 106°
2026-05-06 13:40 53.42553 -1.32085 15551 ft 418 kts 106°
2026-05-06 13:40 53.41704 -1.27404 16000 ft 421 kts 107°
2026-05-06 13:40 53.40854 -1.22694 16529 ft 423 kts 107°
2026-05-06 13:40 53.40000 -1.17966 17025 ft 426 kts 107°
2026-05-06 13:41 53.39131 -1.13191 17501 ft 430 kts 107°
2026-05-06 13:41 53.38502 -1.09761 17858 ft 432 kts 107°